Time,TemperatureF,DewpointF,PressureIn,WindDirection,WindDirectionDegrees,WindSpeedMPH,WindSpeedGustMPH,Humidity,HourlyPrecipIn,Conditions,Clouds,dailyrainin,SoftwareType,DateUTC
2013-03-20 00:11:00,31.2,27.0,29.77,NE,55,2.0,-999.0,85,-99.99,,,0.00,weatherlink.com 1.10,2013-03-20 04:11:00,
2013-03-20 00:26:00,30.3,26.0,29.77,NE,37,9.0,-999.0,83,-99.99,,,0.00,weatherlink.com 1.10,2013-03-20 04:26:00,
2013-03-20 00:41:00,29.9,26.0,29.77,NNE,28,0.0,-999.0,84,-99.99,,,0.00,weatherlink.com 1.10,2013-03-20 04:41:00,
2013-03-20 01:11:00,29.6,25.0,29.78,NNW,328,1.0,-999.0,82,-99.99,,,0.00,weatherlink.com 1.10,2013-03-20 05:11:00,
2013-03-20 01:26:00,29.6,24.0,29.79,North,354,2.0,-999.0,79,-99.99,,,0.00,weatherlink.com 1.10,2013-03-20 05:26:00,
2013-03-20 01:41:00,29.2,23.0,29.79,NNE,14,0.0,-999.0,79,-99.99,,,0.00,weatherlink.com 1.10,2013-03-20 05:41:00,
2013-03-20 01:56:00,28.8,23.0,29.79,NNW,330,0.0,-999.0,80,-99.99,,,0.00,weatherlink.com 1.10,2013-03-20 05:56:00,
2013-03-20 02:11:00,28.3,23.0,29.80,NNW,335,3.0,-999.0,81,-99.99,,,0.00,weatherlink.com 1.10,2013-03-20 06:11:00,
2013-03-20 02:26:00,28.3,23.0,29.80,NNW,329,0.0,-999.0,80,-99.99,,,0.00,weatherlink.com 1.10,2013-03-20 06:26:00,
2013-03-20 02:41:00,27.9,23.0,29.80,NNW,337,0.0,-999.0,80,-99.99,,,0.00,weatherlink.com 1.10,2013-03-20 06:41:00,
2013-03-20 02:56:00,27.7,23.0,29.80,NNW,328,0.0,-999.0,81,-99.99,,,0.00,weatherlink.com 1.10,2013-03-20 06:56:00,
2013-03-20 03:11:00,27.1,22.0,29.81,NW,324,0.0,-999.0,81,-99.99,,,0.00,weatherlink.com 1.10,2013-03-20 07:11:00,
2013-03-20 03:27:00,27.0,22.0,29.80,North,354,0.0,-999.0,81,-99.99,,,0.00,weatherlink.com 1.10,2013-03-20 07:27:00,
2013-03-20 03:41:00,27.1,22.0,29.81,WNW,301,0.0,-999.0,80,-99.99,,,0.00,weatherlink.com 1.10,2013-03-20 07:41:00,
2013-03-20 03:56:00,27.1,21.0,29.81,NNW,333,0.0,-999.0,79,-99.99,,,0.00,weatherlink.com 1.10,2013-03-20 07:56:00,
2013-03-20 04:11:00,26.9,21.0,29.81,WSW,243,0.0,-999.0,78,-99.99,,,0.00,weatherlink.com 1.10,2013-03-20 08:11:00,
2013-03-20 04:26:00,26.7,20.0,29.81,West,273,0.0,-999.0,75,-99.99,,,0.00,weatherlink.com 1.10,2013-03-20 08:26:00,
2013-03-20 04:41:00,26.5,19.0,29.82,WSW,248,0.0,-999.0,72,-99.99,,,0.00,weatherlink.com 1.10,2013-03-20 08:41:00,
2013-03-20 04:56:00,26.4,19.0,29.81,West,272,7.0,-999.0,72,-99.99,,,0.00,weatherlink.com 1.10,2013-03-20 08:56:00,
2013-03-20 05:11:00,26.3,18.0,29.81,West,267,1.0,-999.0,72,-99.99,,,0.00,weatherlink.com 1.10,2013-03-20 09:11:00,
2013-03-20 05:26:00,26.3,18.0,29.82,SW,232,0.0,-999.0,72,-99.99,,,0.00,weatherlink.com 1.10,2013-03-20 09:26:00,
2013-03-20 05:41:00,26.2,18.0,29.82,West,275,1.0,-999.0,72,-99.99,,,0.00,weatherlink.com 1.10,2013-03-20 09:41:00,
2013-03-20 05:57:00,26.1,18.0,29.82,WNW,297,2.0,-999.0,72,-99.99,,,0.00,weatherlink.com 1.10,2013-03-20 09:57:00,
2013-03-20 06:11:00,25.9,18.0,29.82,WNW,287,0.0,-999.0,73,-99.99,,,0.00,weatherlink.com 1.10,2013-03-20 10:11:00,
2013-03-20 06:26:00,25.8,18.0,29.82,WNW,282,0.0,-999.0,73,-99.99,,,0.00,weatherlink.com 1.10,2013-03-20 10:26:00,
2013-03-20 06:41:00,25.7,18.0,29.82,NNW,328,5.0,-999.0,73,-99.99,,,0.00,weatherlink.com 1.10,2013-03-20 10:41:00,
2013-03-20 06:56:00,25.7,18.0,29.83,West,268,3.0,-999.0,73,-99.99,,,0.00,weatherlink.com 1.10,2013-03-20 10:56:00,
2013-03-20 07:11:00,25.8,18.0,29.82,WNW,283,2.0,-999.0,73,-99.99,,,0.00,weatherlink.com 1.10,2013-03-20 11:11:00,
2013-03-20 07:26:00,25.7,18.0,29.83,WSW,247,4.0,-999.0,74,-99.99,,,0.00,weatherlink.com 1.10,2013-03-20 11:26:00,
2013-03-20 07:41:00,25.9,19.0,29.83,West,262,4.0,-999.0,74,-99.99,,,0.00,weatherlink.com 1.10,2013-03-20 11:41:00,
2013-03-20 07:57:00,26.2,19.0,29.83,NW,305,0.0,-999.0,75,-99.99,,,0.00,weatherlink.com 1.10,2013-03-20 11:57:00,
2013-03-20 08:12:00,26.9,19.0,29.82,West,278,0.0,-999.0,73,-99.99,,,0.00,weatherlink.com 1.10,2013-03-20 12:12:00,
2013-03-20 08:42:00,27.9,20.0,29.82,NNW,340,10.0,-999.0,71,-99.99,,,0.00,weatherlink.com 1.10,2013-03-20 12:42:00,
2013-03-20 09:12:00,29.2,19.0,29.82,NNW,331,0.0,-999.0,65,-99.99,,,0.00,weatherlink.com 1.10,2013-03-20 13:12:00,
2013-03-20 09:27:00,30.0,19.0,29.82,NW,315,4.0,-999.0,63,-99.99,,,0.00,weatherlink.com 1.10,2013-03-20 13:27:00,
2013-03-20 09:42:00,30.6,19.0,29.82,NW,321,11.0,-999.0,62,-99.99,,,0.00,weatherlink.com 1.10,2013-03-20 13:42:00,
2013-03-20 09:57:00,31.2,20.0,29.82,NNW,333,5.0,-999.0,63,-99.99,,,0.00,weatherlink.com 1.10,2013-03-20 13:57:00,
2013-03-20 10:12:00,32.6,21.0,29.82,WNW,298,6.0,-999.0,62,-99.99,,,0.00,weatherlink.com 1.10,2013-03-20 14:12:00,
2013-03-20 10:42:00,31.9,18.0,29.82,North,349,15.0,-999.0,58,-99.99,,,0.00,weatherlink.com 1.10,2013-03-20 14:42:00,
2013-03-20 10:57:00,33.2,19.0,29.82,WNW,301,7.0,-999.0,57,-99.99,,,0.00,weatherlink.com 1.10,2013-03-20 14:57:00,
2013-03-20 11:12:00,34.1,21.0,29.83,NW,312,5.0,-999.0,58,-99.99,,,0.00,weatherlink.com 1.10,2013-03-20 15:12:00,
2013-03-20 11:27:00,34.1,19.0,29.84,SW,222,6.0,-999.0,55,-99.99,,,0.00,weatherlink.com 1.10,2013-03-20 15:27:00,
2013-03-20 11:42:00,33.6,19.0,29.84,WNW,301,8.0,-999.0,56,-99.99,,,0.00,weatherlink.com 1.10,2013-03-20 15:42:00,
2013-03-20 11:57:00,33.9,20.0,29.84,SE,145,2.0,-999.0,57,-99.99,,,0.00,weatherlink.com 1.10,2013-03-20 15:57:00,
2013-03-20 12:12:00,33.4,19.0,29.84,North,359,5.0,-999.0,55,-99.99,,,0.00,weatherlink.com 1.10,2013-03-20 16:12:00,
2013-03-20 12:27:00,33.7,19.0,29.84,NNW,330,9.0,-999.0,55,-99.99,,,0.00,weatherlink.com 1.10,2013-03-20 16:27:00,
2013-03-20 12:42:00,34.1,18.0,29.83,WNW,303,6.0,-999.0,53,-99.99,,,0.00,weatherlink.com 1.10,2013-03-20 16:42:00,
2013-03-20 12:57:00,35.2,18.0,29.83,WNW,293,2.0,-999.0,50,-99.99,,,0.00,weatherlink.com 1.10,2013-03-20 16:57:00,
2013-03-20 13:12:00,36.2,20.0,29.83,WNW,286,5.0,-999.0,52,-99.99,,,0.02,weatherlink.com 1.10,2013-03-20 17:12:00,
2013-03-20 13:27:00,36.4,19.0,29.82,NW,314,5.0,-999.0,50,-99.99,,,0.05,weatherlink.com 1.10,2013-03-20 17:27:00,
2013-03-20 13:42:00,37.3,20.0,29.81,North,8,1.0,-999.0,49,-99.99,,,0.06,weatherlink.com 1.10,2013-03-20 17:42:00,
2013-03-20 13:57:00,36.9,19.0,29.81,NW,308,9.0,-999.0,48,-99.99,,,0.07,weatherlink.com 1.10,2013-03-20 17:57:00,
2013-03-20 14:12:00,37.8,20.0,29.80,WNW,294,9.0,-999.0,48,-99.99,,,0.09,weatherlink.com 1.10,2013-03-20 18:12:00,
2013-03-20 14:27:00,39.2,20.0,29.79,North,349,5.0,-999.0,47,-99.99,,,0.10,weatherlink.com 1.10,2013-03-20 18:27:00,
2013-03-20 14:42:00,39.4,18.0,29.79,East,95,0.0,-999.0,43,-99.99,,,0.11,weatherlink.com 1.10,2013-03-20 18:42:00,
2013-03-20 14:57:00,39.4,18.0,29.79,SW,222,12.0,-999.0,43,-99.99,,,0.13,weatherlink.com 1.10,2013-03-20 18:57:00,
2013-03-20 15:12:00,40.3,19.0,29.78,SW,224,1.0,-999.0,42,-99.99,,,0.14,weatherlink.com 1.10,2013-03-20 19:12:00,
2013-03-20 15:27:00,40.2,18.0,29.79,NW,306,8.0,-999.0,41,-99.99,,,0.15,weatherlink.com 1.10,2013-03-20 19:27:00,
2013-03-20 15:42:00,39.9,17.0,29.79,NW,322,0.0,-999.0,40,-99.99,,,0.16,weatherlink.com 1.10,2013-03-20 19:42:00,
2013-03-20 15:57:00,38.6,17.0,29.79,NW,305,6.0,-999.0,41,-99.99,,,0.17,weatherlink.com 1.10,2013-03-20 19:57:00,
2013-03-20 16:12:00,39.4,17.0,29.79,West,270,0.0,-999.0,40,-99.99,,,0.17,weatherlink.com 1.10,2013-03-20 20:12:00,
2013-03-20 16:27:00,39.5,16.0,29.79,NW,308,0.0,-999.0,39,-99.99,,,0.18,weatherlink.com 1.10,2013-03-20 20:27:00,
2013-03-20 16:42:00,38.6,17.0,29.79,North,359,2.0,-999.0,41,-99.99,,,0.18,weatherlink.com 1.10,2013-03-20 20:42:00,
2013-03-20 16:57:00,38.7,17.0,29.79,WNW,291,0.0,-999.0,42,-99.99,,,0.19,weatherlink.com 1.10,2013-03-20 20:57:00,
2013-03-20 17:12:00,39.4,16.0,29.78,SSE,158,3.0,-999.0,39,-99.99,,,0.19,weatherlink.com 1.10,2013-03-20 21:12:00,
2013-03-20 17:27:00,38.1,16.0,29.78,West,271,0.0,-999.0,41,-99.99,,,0.19,weatherlink.com 1.10,2013-03-20 21:27:00,
2013-03-20 17:42:00,38.0,18.0,29.78,NNW,329,0.0,-999.0,44,-99.99,,,0.19,weatherlink.com 1.10,2013-03-20 21:42:00,
2013-03-20 17:57:00,38.3,16.0,29.78,West,265,2.0,-999.0,41,-99.99,,,0.20,weatherlink.com 1.10,2013-03-20 21:57:00,
2013-03-20 18:12:00,38.0,16.0,29.79,WSW,258,2.0,-999.0,41,-99.99,,,0.20,weatherlink.com 1.10,2013-03-20 22:12:00,
2013-03-20 18:27:00,37.4,17.0,29.79,NW,321,1.0,-999.0,43,-99.99,,,0.20,weatherlink.com 1.10,2013-03-20 22:27:00,
2013-03-20 18:42:00,36.8,17.0,29.79,NNW,333,0.0,-999.0,45,-99.99,,,0.20,weatherlink.com 1.10,2013-03-20 22:42:00,
2013-03-20 18:57:00,35.9,16.0,29.80,NNW,332,0.0,-999.0,44,-99.99,,,0.20,weatherlink.com 1.10,2013-03-20 22:57:00,
2013-03-20 19:12:00,35.3,16.0,29.80,NW,326,4.0,-999.0,46,-99.99,,,0.20,weatherlink.com 1.10,2013-03-20 23:12:00,
2013-03-20 19:27:00,34.4,17.0,29.80,NW,314,2.0,-999.0,50,-99.99,,,0.20,weatherlink.com 1.10,2013-03-20 23:27:00,
2013-03-20 19:42:00,33.4,17.0,29.79,WNW,291,0.0,-999.0,51,-99.99,,,0.20,weatherlink.com 1.10,2013-03-20 23:42:00,
2013-03-20 19:57:00,32.9,16.0,29.80,West,281,4.0,-999.0,51,-99.99,,,0.20,weatherlink.com 1.10,2013-03-20 23:57:00,
2013-03-20 20:12:00,33.0,16.0,29.80,WSW,258,0.0,-999.0,50,-99.99,,,0.20,weatherlink.com 1.10,2013-03-21 00:12:00,
2013-03-20 20:27:00,32.9,16.0,29.80,WSW,239,0.0,-999.0,50,-99.99,,,0.20,weatherlink.com 1.10,2013-03-21 00:27:00,
2013-03-20 20:42:00,32.5,16.0,29.80,WSW,239,0.0,-999.0,51,-99.99,,,0.20,weatherlink.com 1.10,2013-03-21 00:42:00,
2013-03-20 21:12:00,31.6,17.0,29.81,WSW,239,0.0,-999.0,54,-99.99,,,0.20,weatherlink.com 1.10,2013-03-21 01:12:00,
2013-03-20 21:27:00,31.0,16.0,29.82,WSW,239,0.0,-999.0,55,-99.99,,,0.20,weatherlink.com 1.10,2013-03-21 01:27:00,
2013-03-20 21:42:00,30.5,16.0,29.82,WSW,239,0.0,-999.0,55,-99.99,,,0.20,weatherlink.com 1.10,2013-03-21 01:42:00,
2013-03-20 21:57:00,30.0,16.0,29.82,WSW,239,0.0,-999.0,56,-99.99,,,0.20,weatherlink.com 1.10,2013-03-21 01:57:00,
2013-03-20 22:12:00,30.0,17.0,29.82,WSW,239,0.0,-999.0,58,-99.99,,,0.20,weatherlink.com 1.10,2013-03-21 02:12:00,
2013-03-20 22:27:00,29.8,16.0,29.82,WSW,239,0.0,-999.0,57,-99.99,,,0.20,weatherlink.com 1.10,2013-03-21 02:27:00,
2013-03-20 22:42:00,29.7,17.0,29.82,WSW,239,0.0,-999.0,59,-99.99,,,0.20,weatherlink.com 1.10,2013-03-21 02:42:00,
2013-03-20 22:57:00,29.8,17.0,29.82,WSW,239,0.0,-999.0,59,-99.99,,,0.20,weatherlink.com 1.10,2013-03-21 02:57:00,
2013-03-20 23:12:00,29.5,17.0,29.82,WSW,239,0.0,-999.0,61,-99.99,,,0.20,weatherlink.com 1.10,2013-03-21 03:12:00,
2013-03-20 23:27:00,29.2,18.0,29.82,WSW,239,0.0,-999.0,62,-99.99,,,0.20,weatherlink.com 1.10,2013-03-21 03:27:00,
2013-03-20 23:42:00,28.8,18.0,29.83,WSW,239,0.0,-999.0,65,-99.99,,,0.20,weatherlink.com 1.10,2013-03-21 03:42:00,
2013-03-20 23:57:00,28.8,18.0,29.83,WSW,239,0.0,-999.0,65,-99.99,,,0.20,weatherlink.com 1.10,2013-03-21 03:57:00,